Location: Alafon
(8.4500°N, 4.2333°E)
Time: 01:24:09
(UTC+00:00)

YAOGAN 1 - Pass Details

Date: 05 July 2020
Orbit: 618 x 620 km, 97.9° (Epoch: 06 August)

Event Time Altitude Azimuth Distance (km) Brightness Sun altitude
Rises 19:12:26 0° 185° (S) 2,888 5.8 -15.8°
Reaches altitude 10° 19:14:47 10° 195° (SSW) 1,982 5.0 -16.3°
Maximum altitude 19:18:40 33° 259° (W) 1,042 4.2 -17.2°
Drops below altitude 10° 19:22:33 10° 324° (NW) 1,980 6.1 -18.0°
Sets 19:24:54 0° 333° (NNW) 2,884 6.9 -18.6°
